Location: Fairmont
(43.6520°N, 94.4610°W)
Time: 02:21:16
(UTC-05:00)

Daily predictions for brighter satellites

Satellite Brightness Start Highest point End
(mag) Time Altitude Azimuth Time Altitude Azimuth Time Altitude Azimuth
CZ-2C R/B 4.2 00:07:29 34° NNE 00:07:29 34° NNE 00:10:24 10° N
CZ-2C R/B 4.0 00:01:27 10° NNE 00:04:25 30° NE 00:04:25 30° NE
Cosmos 2219 Rocket 3.5 00:06:05 30° W 00:07:42 36° NW 00:12:54 10° N
SL-16 R/B 3.3 00:21:36 36° NE 00:21:36 36° NE 00:24:55 10° NNE
Mayak 1.7 00:21:38 10° NE 00:21:40 10° NE 00:21:40 10° NE
Meteor 2-5 Rocket 4.4 00:23:33 10° N 00:28:09 56° N 00:28:09 56° N
Cosmos 1943 Rocket 4.3 00:28:40 10° N 00:32:00 16° NE 00:33:00 15° ENE
ATLAS CENTAUR R/B 4.3 00:29:08 10° NNW 00:29:33 13° NNW 00:29:33 13° NNW
Cosmos 2333 Rocket 3.9 00:36:58 24° WNW 00:38:32 27° NW 00:43:17 10° N
Cosmos 2237 Rocket 3.7 00:54:11 28° WNW 00:54:44 28° NW 00:59:34 10° N
COSMOS 2455 3.8 00:49:15 10° NW 00:53:12 41° NW 00:53:12 41° NW
Cosmos 2369 Rocket 3.5 00:50:45 10° N 00:55:12 34° NE 00:55:12 34° NE
Lacrosse 5 4.5 01:02:53 10° NW 01:06:19 18° N 01:09:45 10° NE
BREEZE-M DEB (TANK) 4.3 01:00:09 10° W 01:08:19 41° NW 01:08:19 41° NW
CENTAUR R/B 3.8 01:11:37 10° NW 01:17:39 41° W 01:17:39 41° W
USA 215 3.4 01:33:40 67° NNE 01:33:40 67° NNE 01:40:00 10° NW
CZ-2C R/B 4.4 01:42:17 10° N 01:45:57 25° NW 01:45:57 25° NW
Cosmos 2366 rocket 4.4 01:56:38 60° NNE 01:56:38 60° NNE 02:01:48 10° N
Mayak 1.4 01:57:10 10° N 01:58:19 16° NNW 01:58:19 16° NNW
Cosmos 1727 Rocket 4.4 01:54:36 10° N 01:59:37 59° NNE 01:59:37 59° NNE
SL-16 R/B 4.1 02:03:27 20° NW 02:03:58 20° NW 02:08:08 10° N
Cosmos 1943 Rocket 3.2 02:11:03 10° NNW 02:14:29 40° NNW 02:14:29 40° NNW
CZ-2D R/B 4.2 02:22:13 10° NE 02:25:33 17° E 02:25:45 17° E
Cosmos 1763 Rocket 4.5 02:36:04 42° N 02:36:04 42° N 02:39:28 10° NNE
Cosmos 2369 Rocket 4.0 02:34:51 10° NW 02:36:57 21° NW 02:36:57 21° NW
CZ-3A R/B 3.4 02:30:31 10° NW 02:41:58 84° NE 02:43:25 55° ESE
SL-08 R/B 4.3 02:51:36 45° NNE 02:51:36 45° NNE 02:55:15 10° N
Lacrosse 5 3.9 02:46:35 10° NW 02:50:50 26° NNE 02:55:02 10° ENE
Cosmos 1821 Rocket 4.0 02:51:44 72° E 02:51:44 72° E 02:57:48 10° NNE
Cosmos 1943 4.2 02:54:00 37° NW 02:54:00 37° NW 02:58:47 10° NNE
Cosmos 1934 Rocket 4.0 03:00:37 65° ESE 03:00:46 65° E 03:06:47 10° NNE
Cosmos 2098 Rocket 3.9 03:03:39 61° NE 03:03:39 61° NE 03:07:45 10° NNE
Cosmos 1125 Rocket 4.1 02:59:39 10° NNW 03:03:33 51° NNW 03:03:33 51° NNW
COBE Rocket 4.5 03:01:20 10° N 03:05:16 55° N 03:05:16 55° N
SL-16 R/B 2.9 03:04:42 43° ESE 03:06:29 59° ENE 03:12:34 10° N
USA 229 DEB 3.7 03:04:05 10° NW 03:11:17 89° NE 03:14:06 42° SE
USA 229 3.7 03:04:11 10° NW 03:11:23 88° NE 03:14:19 40° SE
Cosmos 2221 3.4 03:20:44 47° NNE 03:20:44 47° NNE 03:23:56 10° NNE
Cosmos 1605 Rocket 4.3 03:19:33 54° SE 03:20:47 65° E 03:27:08 10° NNE
ADEOS Rocket 2.8 03:21:09 10° N 03:26:26 65° WNW 03:26:26 65° WNW
IRS-1C 4.0 03:23:24 10° NNE 03:28:47 84° ESE 03:28:50 84° ESE
NPP 3.7 03:26:28 10° N 03:31:41 68° WNW 03:31:41 68° WNW
Cosmos 1805 Rocket 4.0 03:27:37 10° N 03:31:26 59° NNE 03:31:26 59° NNE
BREEZE-M DEB (TANK) 3.0 03:38:34 54° NE 03:38:34 54° NE 03:43:23 10° E
Cosmos 1400 Rocket 4.2 03:39:09 10° NNW 03:41:19 31° NNW 03:41:19 31° NNW
NOSS 3-1 (C) 4.1 03:36:44 10° NW 03:44:17 77° NE 03:52:41 10° SE
Resurs 1-4 Rocket 2.0 03:39:47 10° NNE 03:45:04 84° ESE 03:45:39 71° S
ARIANE 5 R/B 2.6 03:40:53 10° NNE 03:46:09 72° ESE 03:46:56 61° SSE
MOS 1 Rocket 3.0 03:52:22 10° NNE 03:56:46 86° ESE 03:56:56 83° SSE
SL-27 R/B 3.5 03:57:47 43° NNE 03:57:47 43° NNE 04:00:15 10° NNE
COSMOS 2406 3.2 03:56:22 57° WSW 03:57:11 64° WNW 04:02:52 10° NNE
Cosmos 1447 Rocket 4.4 03:52:19 10° N 03:58:33 89° W 04:01:18 36° S
Sich 1 2.9 03:55:08 10° N 03:59:33 89° E 03:59:35 88° SE
Cosmos 292 Rocket 3.6 04:01:42 73° WSW 04:02:02 78° WNW 04:06:53 10° NNE
Okean O Rocket 4.5 04:02:15 10° ENE 04:03:44 11° E 04:05:14 10° ESE
Cosmos 1300 2.9 04:03:53 66° E 04:03:53 66° E 04:07:39 10° NNE
UNK 4.4 04:05:26 39° WNW 04:05:26 39° WNW 04:08:52 10° NNW
CZ-2D R/B 2.1 04:00:49 10° N 04:06:08 66° WNW 04:07:04 55° WSW
Tiangong 2 3.6 04:08:15 17° ESE 04:08:15 17° ESE 04:09:21 10° E
Shenzhou-11 Module 4.1 04:14:00 21° ESE 04:14:00 21° ESE 04:15:25 10° E
Cosmos 2285 Rocket 4.1 04:11:44 44° SW 04:13:39 62° WNW 04:20:01 10° NNE
Cosmos 2278 4.3 04:08:45 10° NNW 04:14:20 57° ENE 04:19:53 10° SE
Cosmos 773 Rocket 4.3 04:12:56 37° S 04:14:56 65° ESE 04:20:12 10° NNE
IRS-1D 3.8 04:11:36 10° N 04:16:38 54° WNW 04:17:40 46° WSW
Cosmos 1697 Rocket 4.3 04:13:35 10° N 04:18:48 36° NE 04:24:01 10° ESE
Meteor 2-2 Rocket 4.4 04:17:22 29° S 04:20:38 78° E 04:26:42 10° NNE
Cosmos 2173 Rocket 4.1 04:17:42 23° S 04:21:48 75° E 04:28:12 10° N
Cosmos 1470 Rocket 3.8 04:18:58 10° N 04:23:17 66° E 04:26:15 19° SSE
MOZ.5/SAFIR/RUBIN 5/SL-8 3.7 04:23:01 48° SSW 04:24:09 64° W 04:28:49 10° NNW
Spot 4 Rocket 4.5 04:21:04 10° N 04:25:57 44° WNW 04:27:04 38° WSW
Cosmos 546 4.5 04:26:46 68° W 04:27:10 79° NNW 04:31:01 10° ENE
COSMOS 2487 4.0 04:28:16 22° SSE 04:29:46 32° ESE 04:32:57 10° NE
ADEOS II 3.3 04:25:08 10° NNE 04:30:03 39° E 04:34:56 10° SSE
Cosmos 1633 Rocket 3.2 04:28:19 10° NNW 04:32:32 49° W 04:32:57 47° WSW
Cosmos 1515 Rocket 3.7 04:30:44 30° S 04:32:50 73° E 04:37:16 10° NNE
Lacrosse 5 1.9 04:29:20 10° NW 04:34:26 84° NE 04:39:30 10° SE
Cosmos 1726 3.1 04:36:31 32° WNW 04:36:31 32° WNW 04:39:36 10° N
ADEOS 4.0 04:33:27 10° N 04:38:26 47° WNW 04:40:13 33° WSW
Cosmos 2082 Rocket 2.8 04:35:51 17° S 04:39:56 51° ESE 04:45:23 10° NE
Cosmos 1459 Rocket 3.8 04:37:03 24° SSW 04:40:55 78° W 04:47:01 10° N
Cosmos 2228 Rocket 3.0 04:39:48 35° SSW 04:41:37 75° W 04:46:04 10° N
Cosmos 1315 Rocket 4.2 04:46:57 10° NW 04:49:25 22° WNW 04:49:25 22° WNW
SL-16 R/B 3.6 04:49:49 23° WSW 04:50:29 24° W 04:55:22 10° NW
Cosmos 1328 Rocket 3.9 04:54:13 31° SW 04:55:43 44° WNW 04:59:55 10° N
Cosmos 482 Debris 4.3 05:00:57 33° S 05:00:57 33° S 05:03:41 10° SSE
ATLAS 2AS CENTAUR R/B 4.1 04:52:57 10° NNW 05:00:43 47° NE 05:07:58 10° ESE
Cosmos 1892 2.6 04:58:15 10° NNW 05:02:06 72° W 05:05:56 10° S
Cosmos 1656 3.6 04:56:36 10° NNW 05:02:20 78° WSW 05:07:59 10° SSE
PSLV R/B 4.3 04:58:45 10° NNE 05:03:00 51° E 05:07:10 10° S
Meteor 2-3 Rocket 3.7 04:57:59 10° NNW 05:03:39 77° W 05:09:20 10° S
PSLV R/B 4.2 05:00:53 10° NNE 05:05:02 68° ESE 05:09:08 10° S
NOSS 3-1 (A) 4.2 04:59:49 10° NW 05:07:14 52° WSW 05:15:19 10° S
OE (NEXTSAT) 4.4 05:07:16 28° WSW 05:09:03 85° NNW 05:12:39 10° ENE
Cosmos 1825 4.0 05:06:01 10° N 05:09:31 34° ENE 05:13:00 10° SE
Cosmos 2369 3.8 05:04:19 10° NW 05:09:48 52° WSW 05:15:15 10° S
UNKNOWN OBJECT B 4.1 05:06:28 10° NNW 05:09:53 26° WNW 05:11:19 21° W
Cosmos 1933 Rocket 4.1 05:12:58 10° NNW 05:17:05 37° W 05:20:45 12° SSW
Cosmos 2233 Rocket 4.4 05:12:20 10° S 05:18:22 65° E 05:24:26 10° NNE
Cosmos 923 Rocket 4.1 05:14:38 17° SW 05:18:38 60° WNW 05:23:51 10° NNE
Cosmos 2061 Rocket 4.4 05:13:51 15° SW 05:18:58 47° WNW 05:25:09 10° N
Cosmos 1151 Rocket 3.5 05:18:15 18° SW 05:21:04 41° WNW 05:25:08 10° N
Resurs 1-4 Rocket 4.0 05:21:24 10° NNW 05:24:12 15° WNW 05:26:43 11° W
ARIANE 5 R/B 4.3 05:21:23 10° NNW 05:24:39 17° WNW 05:27:17 12° W
Cosmos 2016 Rocket 4.2 05:19:15 11° SSW 05:24:55 51° WNW 05:30:51 10° N
SL-16 R/B 4.5 05:22:12 10° N 05:27:06 28° NE 05:31:57 10° ESE
Cosmos 1833 Rocket 2.8 05:27:09 12° SW 05:32:23 64° WNW 05:38:01 10° NNE
Cosmos 1680 Rocket 3.7 05:31:26 11° SW 05:36:28 55° WNW 05:41:43 10° NNE
Cosmos 1707 Rocket 3.8 05:32:51 10° S 05:37:14 76° E 05:41:38 10° NNE
ATLAS 5 CENTAUR R/B 4.3 05:35:41 10° SE 05:38:25 16° ESE 05:41:16 10° ENE
CZ-4B R/B 3.3 05:34:43 10° N 05:39:09 60° WNW 05:43:36 10° SSW
Cosmos 1725 Rocket 4.1 05:33:48 10° SSW 05:39:51 55° WNW 05:45:55 10° N
Okean O Rocket 1.6 05:36:11 10° N 05:40:36 70° WNW 05:44:58 10° SSW
Tiangong 2 1.2 05:40:37 13° WSW 05:43:20 65° S 05:46:33 10° E
Cosmos 2112 Rocket 4.3 05:38:51 10° SW 05:44:05 55° WNW 05:49:21 10° NNE
CZ-2D R/B 4.3 05:44:42 10° NW 05:45:09 10° NW 05:45:36 10° WNW
CZ-2C R/B 3.8 05:41:43 10° SSE 05:46:09 83° ENE 05:50:40 10° NNW
IRS-1C Rocket 4.1 05:40:52 10° NNE 05:46:11 89° W 05:51:27 10° SSW
Cosmos 1980 Rocket 2.2 05:42:54 10° NNW 05:48:32 79° WSW 05:54:08 10° SSE
Shenzhou-11 Module 2.0 05:45:54 11° W 05:48:48 74° S 05:51:54 10° E
Cosmos 1455 3.3 05:52:05 10° SW 05:55:13 25° WNW 05:58:24 10° NNW
ASTEX 1 4.4 05:53:46 10° NNE 05:58:33 51° E 06:03:18 10° SSE
Meteor 1-28 Rocket 4.3 05:57:07 10° SSE 06:00:44 50° ENE 06:04:21 10° N
Cosmos 2056 Rocket 3.6 05:55:38 10° NNW 06:01:00 72° WSW 06:06:24 10° S
Cosmos 1697 Rocket 3.2 05:57:37 10° NW 06:02:45 36° WSW 06:07:51 10° S
